Temperature
5 3 3 3 3 5 4 4 4 4 3 2 1 1 1 1 0 0 1 1 2 2 3 3 3 3 3 3 3 3 3 3 3 3 3 3 4 4 4 4 4 4 4 4
3 3 3 3 3 4 4 3 3 3 3 2 0 0 0 0 -0 0 0 0 1 1 2 2 2 2 3 3 3 3 3 3 3 3 3 3 3 3 3 3 3 3 3 4
4 3 3 3 3 3 3 3 3 3 2 1 0 1 1 0 -0 -0 -0 0 0 0 1 2 2 2 2 2 2 2 2 2 2 2 2 2 2 3 3 3 3 3 3 3
2 2 3 3 3 3 3 2 2 2 1 1 1 2 1 -1 -1 -1 -1 -1 -1 -0 0 1 1 1 1 1 1 1 1 2 2 2 2 2 2 2 2 2 2 2 2 2
2 2 2 2 2 2 2 1 1 1 0 -0 -1 0 1 -1 -1 -1 -2 -1 -1 -1 -0 0 1 1 1 0 1 1 1 1 1 1 1 1 1 1 1 1 2 2 2 2
1 1 1 1 1 2 1 0 -0 -1 -1 1 -0 -0 1 -1 -2 -2 -2 -2 -1 -1 -1 -0 -0 0 0 -0 -0 0 0 0 0 0 0 0 0 0 0 1 1 1 1 1
2 1 1 1 1 1 1 1 1 1 0 1 -1 -1 -1 -2 -3 -3 -3 -2 -2 -1 -1 -1 -1 -1 -0 -1 -1 -1 -0 -0 -0 -0 -0 -0 -0 -1 -0 -0 0 0 0 1
2 1 0 -0 0 0 -0 1 1 2 1 -0 -1 -2 -1 -2 -3 -3 -3 -2 -2 -2 -2 -1 -1 -1 -1 -1 -1 -1 -1 -1 -1 -1 -1 -1 -1 -1 -1 -1 -1 -1 -0 -0
1 1 -0 -0 -0 -0 -1 -1 -1 -1 -2 -2 -2 -3 -3 -3 -3 -4 -4 -3 -3 -2 -2 -2 -2 -2 -2 -2 -2 -2 -2 -2 -2 -2 -2 -2 -2 -2 -2 -2 -2 -1 -1 -1
-0 -0 -1 -1 -1 -1 -1 -2 -2 -1 -0 -0 -1 -2 -2 -2 -3 -4 -4 -4 -3 -3 -3 -2 -2 -2 -2 -2 -2 -3 -3 -3 -3 -3 -3 -3 -3 -3 -3 -3 -2 -2 -2 -2
-1 -1 -1 -2 -2 -2 -2 -2 -2 -2 -2 -1 -1 -1 -2 -3 -3 -4 -4 -3 -3 -3 -3 -3 -3 -3 -3 -3 -3 -3 -3 -3 -3 -3 -3 -3 -3 -3 -3 -3 -3 -3 -3 -2
-2 -3 -2 -2 -3 -3 -3 -3 -3 -2 -2 -3 -3 -2 -2 -4 -4 -4 -4 -3 -3 -3 -4 -4 -4 -4 -4 -4 -3 -4 -4 -4 -4 -4 -4 -4 -4 -4 -4 -4 -4 -4 -3 -3
-3 -2 -2 -1 -2 -4 -4 -4 -4 -4 -4 -4 -3 -2 -3 -4 -4 -4 -4 -4 -4 -4 -4 -4 -4 -4 -4 -4 -4 -4 -4 -5 -5 -5 -5 -5 -5 -5 -5 -5 -5 -4 -4 -4
-2 -3 -2 -1 -1 -3 -4 -4 -5 -4 -4 -4 -4 -3 -3 -4 -5 -5 -4 -4 -4 -5 -5 -5 -5 -5 -5 -5 -5 -5 -5 -5 -5 -5 -6 -5 -5 -5 -5 -5 -5 -5 -5 -5
-3 -4 -4 -4 -3 -4 -4 -4 -4 -5 -4 -4 -3 -3 -3 -4 -5 -5 -5 -5 -5 -5 -5 -5 -5 -5 -5 -5 -5 -6 -6 -6 -6 -6 -6 -6 -6 -6 -6 -6 -6 -6 -5 -5
-4 -4 -5 -5 -4 -4 -4 -4 -4 -4 -4 -4 -4 -4 -5 -5 -5 -5 -6 -6 -6 -6 -6 -6 -6 -6 -6 -6 -6 -6 -6 -6 -6 -7 -6 -7 -7 -7 -7 -6 -6 -6 -6 -6
-5 -5 -4 -4 -5 -5 -4 -4 -5 -5 -5 -5 -4 -4 -6 -6 -6 -6 -6 -6 -7 -6 -7 -7 -7 -7 -7 -7 -7 -7 -7 -7 -7 -7 -7 -7 -7 -7 -7 -7 -7 -7 -7 -6
-6 -5 -5 -5 -5 -4 -3 -5 -5 -5 -6 -6 -6 -6 -7 -7 -6 -6 -6 -6 -6 -6 -7 -7 -7 -7 -7 -7 -7 -7 -8 -7 -7 -7 -8 -8 -8 -8 -7 -7 -7 -7 -7 -7
-6 -5 -5 -6 -5 -5 -4 -5 -6 -6 -6 -7 -7 -7 -7 -7 -7 -6 -5 -6 -6 -7 -7 -7 -7 -8 -8 -8 -8 -8 -8 -8 -8 -8 -8 -8 -8 -8 -8 -8 -8 -8 -8 -8
-6 -6 -6 -6 -5 -4 -3 -6 -6 -6 -6 -7 -7 -8 -8 -8 -8 -7 -6 -7 -7 -7 -8 -8 -8 -8 -8 -8 -9 -9 -9 -9 -9 -9 -8 -8 -9 -9 -9 -9 -9 -8 -8 -8
-7 -7 -7 -6 -6 -5 -5 -7 -6 -5 -4 -6 -7 -7 -8 -9 -8 -8 -8 -8 -8 -8 -8 -8 -8 -8 -9 -9 -9 -9 -9 -9 -9 -9 -9 -9 -9 -9 -9 -9 -9 -9 -9 -9
-6 -7 -7 -7 -6 -5 -7 -7 -6 -6 -6 -6 -7 -7 -8 -8 -8 -8 -8 -8 -8 -8 -9 -9 -9 -9 -9 -10 -10 -10 -10 -10 -10 -10 -10 -10 -10 -9 -10 -10 -9 -9 -9 -9
-7 -6 -6 -6 -5 -6 -6 -6 -6 -6 -7 -7 -7 -8 -8 -9 -9 -9 -9 -9 -9 -9 -9 -9 -10 -10 -10 -10 -10 -10 -10 -10 -10 -10 -10 -10 -10 -10 -10 -10 -10 -10 -9 -9
-8 -8 -8 -8 -8 -7 -7 -7 -7 -7 -7 -7 -8 -8 -9 -9 -9 -9 -10 -10 -10 -10 -10 -10 -10 -10 -10 -10 -10 -10 -10 -11 -11 -11 -10 -11 -11 -10 -10 -10 -10 -10 -10 -10
-8 -9 -9 -9 -9 -8 -7 -7 -7 -8 -8 -8 -8 -9 -9 -9 -10 -10 -10 -10 -10 -10 -10 -11 -11 -11 -11 -11 -11 -11 -11 -11 -11 -11 -11 -11 -11 -11 -11 -11 -11 -10 -10 -11
-9 -9 -9 -8 -8 -8 -8 -7 -8 -8 -9 -9 -9 -9 -9 -10 -10 -10 -10 -11 -11 -11 -11 -11 -11 -11 -11 -11 -11 -11 -11 -11 -12 -11 -11 -11 -11 -11 -11 -11 -11 -11 -11 -11
Wind_Speed
5 5 0 4 4 2 2 3 6 5 2 2 6 10 9 5 4 5 5 5 6 6 5 2 1 1 0 0 0 0 0 1 2 1 1 1 2 2 3 4 4 5 5 4
5 1 4 1 1 1 1 3 6 5 2 2 6 10 8 5 4 5 6 6 6 5 3 2 1 0 1 1 0 0 0 0 1 1 1 1 2 2 2 3 4 4 5 5
3 2 1 1 1 1 2 4 5 5 5 2 5 8 3 3 2 2 3 3 4 5 5 3 2 1 1 1 1 1 1 1 1 2 2 2 2 2 2 3 3 5 5 5
1 2 1 0 1 2 5 3 4 3 3 4 2 6 5 3 3 3 4 3 4 4 4 3 2 2 2 2 1 1 1 1 2 1 1 1 1 2 3 2 3 5 5 5
2 1 0 2 3 2 4 2 1 2 2 3 1 3 7 2 4 6 5 4 4 4 3 3 2 2 1 1 0 0 1 2 2 2 1 1 2 2 3 3 3 4 4 5
2 1 0 2 2 0 1 2 2 3 2 3 4 5 6 3 4 5 5 4 4 4 2 2 2 1 2 2 1 1 1 2 3 2 2 1 2 3 4 4 4 4 4 4
4 2 1 1 2 3 2 3 4 5 2 6 2 3 7 5 3 3 4 4 4 3 2 2 2 2 2 2 1 1 1 2 3 3 2 2 3 3 4 4 4 4 4 4
2 5 2 1 1 2 1 3 4 4 5 5 2 6 6 3 3 3 2 3 2 2 2 1 1 1 1 2 2 2 2 3 3 3 3 3 3 3 3 4 4 4 4 4
2 4 2 1 1 2 2 2 2 2 2 4 6 6 7 2 4 4 4 3 3 3 3 2 2 2 2 2 2 2 2 3 3 4 4 4 4 3 4 5 4 4 4 4
4 3 3 2 2 3 1 4 3 2 2 5 6 5 4 5 5 4 4 4 4 4 3 3 2 2 2 2 2 2 2 3 4 4 4 4 4 4 5 4 5 5 5 5
2 2 3 1 3 3 2 2 2 2 2 3 5 6 4 4 3 4 5 5 4 3 3 3 3 2 2 2 2 3 3 4 4 4 4 4 4 5 5 5 5 5 5 5
2 2 4 5 2 1 4 4 5 3 4 3 3 7 2 2 2 2 5 5 3 3 2 3 3 2 2 3 3 3 3 4 4 4 4 4 5 5 5 6 6 6 6 5
3 2 2 5 2 2 1 2 3 2 2 4 5 8 1 3 4 3 4 5 4 3 3 3 3 2 3 3 3 4 4 4 4 4 4 5 5 5 6 6 6 6 6 6
2 3 6 8 6 3 4 4 4 5 5 6 10 12 9 7 7 7 6 5 4 4 4 4 4 3 4 3 3 4 4 4 5 4 5 5 5 6 6 6 6 6 6 6
2 3 5 8 7 4 7 8 7 10 10 10 10 11 13 8 7 7 6 6 5 5 5 5 4 4 4 4 4 4 4 5 5 5 5 6 6 6 6 6 6 6 6 6
1 3 2 6 5 5 8 10 10 12 10 12 13 14 8 6 5 6 6 5 6 6 6 6 5 5 5 5 5 5 5 5 5 5 5 6 6 6 6 6 6 6 6 6
2 3 2 5 4 4 8 9 9 7 7 8 11 10 5 6 7 8 7 5 7 7 7 6 6 5 5 5 5 5 5 5 5 5 6 6 6 6 7 7 6 7 7 7
5 3 2 2 3 6 7 2 5 7 7 7 7 7 6 8 9 8 5 5 7 6 6 6 5 5 5 4 4 4 5 5 5 6 6 6 6 7 7 7 7 7 6 7
5 5 3 2 3 8 7 3 4 5 7 6 8 8 6 6 6 6 4 4 6 6 6 5 4 4 4 4 4 4 5 5 5 6 6 6 6 7 7 7 7 7 7 7
1 3 3 3 3 7 6 2 2 2 6 4 4 6 5 3 5 7 4 4 5 5 4 4 3 3 3 4 4 4 5 5 6 7 7 7 7 7 7 8 8 7 7 8
2 2 5 6 7 9 4 1 3 3 6 2 3 4 4 5 7 6 6 7 5 5 4 3 3 3 4 4 3 4 5 6 7 7 7 7 7 7 7 7 7 7 7 8
6 5 6 5 5 8 2 4 5 5 3 2 3 4 5 6 6 6 6 6 5 5 4 3 3 4 4 3 3 5 6 7 6 6 7 7 7 7 6 6 7 6 7 7
7 7 5 8 7 3 3 4 3 2 3 4 3 5 4 5 6 6 6 5 5 5 4 4 3 4 5 4 3 5 7 7 6 6 7 7 8 7 7 6 7 6 6 5
4 1 3 5 7 5 4 3 4 4 4 5 5 5 4 6 6 6 6 6 5 5 4 4 3 4 6 5 5 5 7 6 6 6 7 7 7 7 7 6 5 5 5 6
4 3 3 6 6 6 4 3 4 4 5 5 5 4 4 4 5 5 5 6 5 5 5 4 4 5 6 6 6 6 6 5 6 6 6 6 6 7 6 6 5 6 6 7
3 4 5 6 5 5 7 5 4 5 6 6 5 6 5 4 5 5 5 5 5 5 5 5 5 6 6 6 7 6 5 5 5 6 6 5 5 5 5 5 6 9 9 11
Wind_Direction
30 62 284 244 223 227 203 231 266 270 295 274 257 270 276 264 251 253 254 253 254 257 267 269 256 253 163 99 88 26 66 11 21 6 346 330 319 322 335 347 353 356 348 346
45 330 259 251 224 187 215 262 276 290 324 272 289 281 272 250 240 247 247 250 253 270 295 290 288 253 174 197 217 268 222 320 351 337 301 282 288 297 310 327 337 344 344 335
171 249 318 109 37 225 242 229 257 279 321 311 318 298 273 282 260 295 279 264 265 258 263 270 269 254 234 238 234 233 273 312 335 341 357 355 346 338 333 330 320 327 331 331
244 302 358 25 254 199 263 251 254 276 315 294 10 294 285 293 314 310 305 297 289 283 272 268 256 259 254 251 246 241 291 336 340 358 9 8 336 305 288 293 300 316 326 327
275 315 34 240 265 208 238 311 261 247 211 291 297 242 287 332 308 298 297 292 295 287 268 263 256 252 293 294 285 287 351 354 348 350 335 311 303 296 304 312 310 309 315 318
260 310 187 249 324 201 165 43 50 57 94 275 231 202 282 263 258 298 307 304 303 306 308 312 335 14 12 13 16 13 15 347 345 342 329 306 300 309 314 317 311 310 305 307
322 309 350 21 24 18 54 65 360 344 336 257 202 210 254 262 260 266 291 298 309 320 330 343 1 0 0 0 359 5 2 336 336 338 332 313 302 298 290 295 299 300 297 287
322 297 284 340 177 198 216 149 169 241 260 286 292 239 254 263 308 308 309 311 335 346 338 318 301 298 311 334 347 348 338 327 330 332 325 318 315 303 292 289 289 287 287 282
203 269 346 9 343 136 135 204 186 161 268 278 270 281 298 318 341 344 340 342 337 335 325 319 319 321 327 338 336 327 326 328 327 325 325 323 319 312 301 299 297 297 298 299
168 262 288 324 40 24 123 149 107 149 250 270 284 272 266 294 305 314 318 312 311 320 324 333 332 324 328 339 341 345 333 321 325 324 321 319 313 314 310 305 304 303 304 299
143 201 298 346 203 215 128 139 165 188 205 218 278 274 232 238 257 270 277 282 284 293 305 315 324 331 341 351 350 348 343 337 333 328 324 321 316 316 317 308 306 306 306 303
159 147 263 258 258 211 179 185 166 194 245 218 238 270 285 220 273 271 288 296 293 289 301 308 318 340 348 343 338 338 335 327 320 319 319 314 317 320 315 310 309 308 307 305
145 139 320 327 328 10 265 215 194 178 182 203 220 263 315 354 332 316 309 312 307 303 313 322 327 325 321 321 323 321 321 322 323 322 318 316 319 315 309 306 308 309 307 305
142 175 200 230 250 209 249 242 206 189 216 235 233 258 283 305 311 313 312 306 299 297 302 307 308 307 308 311 311 313 317 320 323 322 315 311 308 304 301 302 305 306 305 304
133 223 238 257 270 254 247 248 221 216 222 232 252 256 272 280 286 290 290 295 300 305 302 297 298 299 305 311 313 313 316 318 318 314 310 305 303 302 301 302 302 304 303 302
167 220 258 279 272 266 267 256 240 236 237 244 261 270 273 283 289 293 291 289 292 294 294 295 299 302 301 301 304 309 310 311 310 303 300 305 305 304 302 301 303 304 302 300
193 178 212 271 302 323 272 241 218 222 221 216 241 258 291 302 295 288 285 280 281 291 297 298 297 290 289 291 296 296 300 309 307 301 300 303 303 302 301 302 305 302 300 299
174 172 202 275 7 255 250 198 196 219 242 224 243 268 279 275 283 281 264 261 276 285 290 294 295 297 299 298 300 302 307 306 303 301 301 303 303 301 302 301 297 294 294 292
186 175 188 204 255 274 285 232 181 206 262 225 235 265 281 297 305 285 262 256 261 270 279 283 286 292 297 299 303 310 308 305 301 299 299 300 300 299 298 296 292 290 290 289
156 165 184 190 225 251 260 225 173 125 279 241 224 259 277 317 306 288 304 303 296 296 294 295 298 303 301 302 306 307 301 300 295 295 296 296 294 292 291 289 288 286 284 285
171 199 212 218 235 261 256 182 133 190 266 288 259 262 258 243 251 285 307 309 301 299 299 298 300 296 290 295 298 295 295 288 290 296 298 298 295 291 287 285 285 285 287 288
194 197 211 199 224 256 180 145 194 237 297 300 288 274 267 273 287 297 304 307 309 312 310 303 300 301 302 298 290 291 291 292 297 299 298 299 298 296 294 288 288 287 285 286
210 205 205 205 226 266 186 206 251 278 277 279 278 286 280 283 286 296 301 301 305 305 304 302 294 302 307 300 283 285 293 300 301 300 298 299 300 299 297 292 290 290 286 283
255 226 218 253 262 273 274 278 296 293 281 286 285 285 276 276 282 290 297 300 302 301 301 300 300 301 302 302 296 286 292 300 297 297 298 300 301 300 299 295 291 289 286 284
242 201 237 260 282 310 291 270 287 302 304 304 305 292 275 273 283 284 290 292 291 297 299 294 292 291 294 300 297 296 297 299 295 294 295 300 300 298 300 299 289 288 277 281
225 204 219 254 264 266 281 288 297 300 302 302 305 306 300 278 273 279 283 283 287 292 296 297 293 292 293 295 295 296 296 294 292 298 300 300 301 301 302 304 306 304 303 304
Height
1506 1512 1517 1516 1516 1515 1515 1517 1517 1514 1512 1514 1512 1508 1505 1504 1503 1502 1502 1501 1501 1501 1502 1503 1503 1504 1504 1505 1506 1506 1507 1507 1508 1508 1508 1508 1508 1508 1508 1508 1508 1508 1509 1509
1512 1517 1515 1515 1515 1515 1517 1518 1517 1514 1512 1513 1513 1508 1502 1500 1500 1499 1498 1498 1498 1498 1499 1499 1500 1500 1500 1501 1502 1503 1504 1504 1504 1505 1506 1505 1505 1505 1505 1505 1505 1505 1505 1505
1514 1516 1514 1514 1515 1516 1517 1518 1516 1516 1514 1513 1514 1504 1500 1497 1497 1497 1496 1496 1496 1496 1496 1496 1497 1497 1497 1498 1499 1500 1501 1501 1502 1502 1502 1502 1502 1502 1502 1502 1502 1502 1502 1502
1516 1516 1515 1515 1515 1515 1515 1515 1515 1515 1518 1518 1517 1511 1499 1499 1497 1495 1494 1494 1493 1494 1494 1494 1494 1494 1495 1495 1496 1497 1498 1498 1499 1499 1499 1499 1498 1497 1498 1498 1498 1498 1498 1498
1516 1516 1515 1515 1515 1515 1515 1515 1516 1516 1519 1522 1521 1518 1501 1500 1498 1495 1493 1492 1492 1492 1491 1491 1492 1492 1493 1493 1494 1495 1495 1496 1496 1496 1496 1496 1495 1495 1494 1494 1494 1494 1494 1494
1517 1516 1516 1516 1515 1515 1515 1516 1518 1521 1522 1519 1518 1519 1504 1502 1498 1495 1492 1491 1490 1490 1490 1490 1491 1491 1491 1492 1492 1492 1493 1493 1493 1493 1493 1492 1492 1491 1490 1490 1490 1490 1489 1490
1516 1516 1516 1516 1516 1516 1516 1519 1520 1519 1523 1516 1517 1517 1506 1497 1496 1494 1492 1491 1490 1489 1489 1489 1489 1489 1489 1490 1490 1490 1490 1490 1490 1490 1489 1489 1488 1487 1487 1486 1486 1485 1485 1485
1520 1519 1518 1517 1517 1519 1520 1519 1522 1522 1521 1518 1518 1515 1501 1496 1494 1493 1492 1491 1489 1488 1488 1488 1487 1488 1488 1488 1488 1488 1488 1488 1488 1487 1486 1486 1485 1484 1484 1483 1482 1481 1480 1480
1522 1520 1519 1517 1517 1518 1520 1523 1523 1527 1530 1528 1517 1513 1501 1494 1493 1492 1490 1489 1488 1487 1487 1486 1487 1487 1487 1486 1486 1486 1486 1485 1485 1484 1483 1482 1482 1481 1480 1479 1478 1477 1476 1476
1521 1523 1520 1519 1518 1519 1520 1523 1527 1526 1522 1517 1513 1512 1504 1495 1493 1492 1491 1489 1488 1487 1486 1486 1486 1485 1485 1485 1485 1484 1484 1483 1482 1481 1480 1479 1478 1477 1476 1475 1474 1473 1472 1471
1521 1524 1522 1521 1521 1520 1523 1524 1524 1526 1524 1521 1516 1505 1496 1494 1492 1491 1490 1489 1488 1487 1486 1485 1485 1484 1484 1483 1483 1482 1481 1480 1479 1478 1477 1476 1474 1473 1472 1471 1470 1468 1467 1467
1521 1525 1525 1521 1519 1518 1520 1521 1523 1522 1522 1527 1523 1507 1492 1491 1490 1490 1489 1488 1486 1486 1485 1484 1483 1482 1481 1481 1480 1479 1478 1477 1476 1475 1473 1472 1470 1469 1468 1467 1465 1464 1463 1462
1520 1524 1524 1518 1521 1522 1522 1521 1522 1522 1523 1526 1522 1503 1492 1491 1489 1489 1488 1486 1485 1484 1483 1482 1481 1480 1479 1478 1478 1477 1475 1474 1473 1471 1470 1468 1467 1466 1464 1463 1461 1460 1458 1457
1516 1521 1521 1517 1511 1517 1520 1519 1520 1521 1520 1519 1513 1499 1491 1490 1489 1487 1486 1485 1484 1482 1481 1480 1479 1477 1476 1476 1475 1474 1472 1471 1470 1468 1466 1464 1463 1462 1460 1459 1457 1455 1454 1452
1515 1520 1520 1516 1513 1515 1514 1513 1514 1515 1511 1509 1499 1496 1488 1488 1488 1486 1485 1483 1481 1480 1479 1477 1476 1475 1473 1472 1471 1470 1469 1468 1466 1465 1463 1461 1460 1458 1456 1454 1452 1451 1449 1448
1516 1518 1519 1516 1511 1512 1509 1505 1505 1505 1504 1502 1497 1491 1486 1485 1484 1483 1482 1480 1478 1477 1475 1474 1473 1472 1470 1469 1468 1467 1465 1464 1463 1461 1459 1458 1456 1454 1452 1450 1448 1446 1445 1443
1516 1517 1517 1514 1513 1510 1505 1497 1498 1498 1496 1495 1492 1487 1485 1484 1482 1480 1479 1477 1476 1474 1473 1471 1470 1469 1467 1466 1465 1463 1462 1460 1459 1457 1456 1454 1452 1450 1448 1445 1443 1442 1440 1438
1514 1515 1516 1516 1515 1509 1491 1490 1490 1491 1490 1490 1487 1485 1484 1482 1480 1477 1476 1474 1472 1471 1470 1468 1467 1465 1464 1463 1462 1460 1458 1457 1455 1453 1452 1450 1448 1445 1443 1441 1439 1437 1435 1434
1508 1511 1515 1516 1514 1503 1491 1489 1490 1491 1487 1484 1484 1482 1481 1479 1477 1473 1472 1471 1470 1468 1467 1465 1464 1462 1461 1459 1458 1456 1454 1453 1451 1449 1447 1445 1443 1440 1438 1436 1434 1432 1431 1429
1508 1509 1513 1514 1509 1501 1486 1487 1486 1489 1487 1480 1480 1479 1479 1478 1478 1471 1469 1468 1466 1465 1463 1461 1460 1459 1457 1456 1454 1452 1450 1449 1447 1445 1443 1441 1439 1436 1434 1432 1430 1428 1426 1424
1510 1511 1511 1510 1506 1495 1486 1485 1486 1490 1481 1478 1477 1476 1476 1475 1473 1470 1466 1464 1463 1461 1459 1458 1457 1455 1454 1452 1451 1449 1447 1445 1443 1440 1438 1436 1434 1432 1429 1427 1425 1423 1421 1419
1504 1507 1507 1506 1503 1492 1484 1485 1485 1481 1477 1476 1475 1474 1473 1471 1468 1466 1464 1461 1459 1457 1456 1455 1453 1451 1450 1449 1447 1445 1443 1441 1439 1436 1434 1432 1430 1427 1425 1423 1420 1418 1416 1414
1497 1494 1493 1493 1488 1481 1479 1479 1478 1477 1476 1474 1473 1471 1470 1467 1465 1463 1461 1458 1456 1455 1453 1452 1450 1448 1447 1446 1444 1442 1440 1437 1435 1432 1430 1427 1425 1423 1421 1418 1416 1414 1411 1409
1492 1491 1490 1488 1480 1478 1477 1476 1476 1475 1473 1471 1470 1468 1466 1464 1462 1460 1458 1456 1454 1452 1450 1448 1447 1445 1443 1442 1440 1438 1436 1434 1431 1428 1426 1423 1421 1418 1416 1414 1412 1409 1407 1405
1489 1490 1488 1485 1480 1477 1474 1474 1474 1472 1471 1468 1467 1465 1463 1461 1459 1457 1455 1453 1451 1449 1447 1446 1444 1442 1440 1438 1437 1435 1432 1430 1427 1425 1422 1420 1417 1415 1412 1410 1408 1405 1403 1402
1486 1486 1486 1480 1477 1476 1473 1471 1471 1469 1467 1465 1463 1461 1460 1458 1456 1453 1451 1450 1448 1446 1444 1442 1440 1439 1437 1435 1433 1431 1429 1426 1424 1421 1419 1416 1413 1411 1408 1406 1404 1402 1400 1398